Previsão horária em Abakaliki

Hoje, 21 Janeiro, Quinta-feira

Tempo Temperatura Precipitação Vento Pressão Humidade
00:00 +26°C° 0 mm 1 m/s 751 mmHg 29%
01:00 +24°C° 0 mm 1 m/s 751 mmHg 34%
02:00 +24°C° 0 mm 1 m/s 751 mmHg 43%
03:00 +23°C° 0 mm 1 m/s 751 mmHg 53%
04:00 +23°C° 0 mm 1 m/s 751 mmHg 62%
05:00 +22°C° 0 mm 1 m/s 751 mmHg 61%
06:00 +22°C° 0 mm 1 m/s 751 mmHg 60%
07:00 +22°C° 0 mm 1 m/s 752 mmHg 59%
08:00 +25°C° 0 mm 2 m/s 752 mmHg 45%
09:00 +28°C° 0 mm 4 m/s 753 mmHg 31%
10:00 +30°C° 0 mm 5 m/s 753 mmHg 17%
11:00 +33°C° 0 mm 5 m/s 752 mmHg 16%
12:00 +35°C° 0 mm 4 m/s 752 mmHg 14%
13:00 +37°C° 0 mm 3 m/s 751 mmHg 13%
14:00 +38°C° 0 mm 3 m/s 750 mmHg 13%
15:00 +38°C° 0 mm 2 m/s 749 mmHg 13%
16:00 +37°C° 0 mm 1 m/s 749 mmHg 14%
17:00 +35°C° 0 mm 1 m/s 749 mmHg 16%
18:00 +33°C° 0 mm 1 m/s 749 mmHg 18%
19:00 +31°C° 0 mm 1 m/s 749 mmHg 20%
20:00 +30°C° 0 mm 1 m/s 750 mmHg 22%
21:00 +29°C° 0 mm 2 m/s 751 mmHg 24%
22:00 +28°C° 0 mm 2 m/s 751 mmHg 26%
23:00 +27°C° 0 mm 2 m/s 751 mmHg 41%

Amanhã, 22 Janeiro, Sexta-feira

Tempo Temperatura Precipitação Vento Pressão Humidade
00:00 +26°C° 0 mm 2 m/s 751 mmHg 56%
01:00 +25°C° 0 mm 2 m/s 751 mmHg 71%
02:00 +25°C° 0 mm 2 m/s 751 mmHg 77%
03:00 +24°C° 0 mm 1 m/s 751 mmHg 83%
04:00 +24°C° 0 mm 1 m/s 751 mmHg 89%
05:00 +23°C° 0 mm 1 m/s 751 mmHg 90%
06:00 +23°C° 0 mm 1 m/s 752 mmHg 91%
07:00 +21°C° 0 mm 0 m/s 752 mmHg 93%
08:00 +26°C° 0 mm 1 m/s 752 mmHg 81%
09:00 +28°C° 0 mm 1 m/s 753 mmHg 70%
10:00 +31°C° 0 mm 1 m/s 753 mmHg 58%
11:00 +33°C° 0 mm 1 m/s 752 mmHg 48%
12:00 +35°C° 0 mm 1 m/s 752 mmHg 38%
13:00 +37°C° 0 mm 1 m/s 751 mmHg 29%
14:00 +37°C° 0 mm 1 m/s 750 mmHg 25%
15:00 +39°C° 0 mm 1 m/s 749 mmHg 22%
16:00 +39°C° 0 mm 1 m/s 748 mmHg 19%
17:00 +36°C° 0 mm 1 m/s 749 mmHg 21%
18:00 +34°C° 0 mm 1 m/s 749 mmHg 23%
19:00 +32°C° 0 mm 1 m/s 749 mmHg 25%
20:00 +31°C° 0 mm 2 m/s 750 mmHg 30%
21:00 +30°C° 0 mm 2 m/s 750 mmHg 35%
22:00 +29°C° 0 mm 3 m/s 751 mmHg 40%
23:00 +28°C° 0 mm 3 m/s 751 mmHg 54%

Depois de amanhã, 23 Janeiro, Sábado

Tempo Temperatura Precipitação Vento Pressão Humidade
00:00 +27°C° 0 mm 2 m/s 751 mmHg 67%
01:00 +26°C° 0 mm 2 m/s 752 mmHg 80%
02:00 +26°C° 0 mm 2 m/s 751 mmHg 83%
03:00 +25°C° 0 mm 2 m/s 751 mmHg 87%
04:00 +25°C° 0 mm 1 m/s 751 mmHg 90%
05:00 +24°C° 0 mm 1 m/s 751 mmHg 91%
06:00 +24°C° 0 mm 1 m/s 752 mmHg 93%
07:00 +24°C° 0 mm 1 m/s 752 mmHg 94%
08:00 +27°C° 0 mm 1 m/s 752 mmHg 82%
09:00 +29°C° 0 mm 1 m/s 753 mmHg 69%
10:00 +32°C° 0 mm 1 m/s 753 mmHg 57%
11:00 +34°C° 0 mm 1 m/s 752 mmHg 47%
12:00 +36°C° 0 mm 2 m/s 751 mmHg 38%
13:00 +38°C° 0 mm 2 m/s 750 mmHg 28%
14:00 +39°C° 0 mm 1 m/s 749 mmHg 25%
15:00 +39°C° 0 mm 1 m/s 748 mmHg 23%
16:00 +40°C° 0 mm 1 m/s 748 mmHg 20%
17:00 +37°C° 0 mm 1 m/s 748 mmHg 21%
18:00 +35°C° 0 mm 1 m/s 748 mmHg 22%
19:00 +33°C° 0 mm 1 m/s 748 mmHg 23%
20:00 +32°C° 0 mm 2 m/s 749 mmHg 25%
21:00 +31°C° 0 mm 2 m/s 750 mmHg 27%
22:00 +30°C° 0 mm 2 m/s 751 mmHg 29%
23:00 +29°C° 0 mm 3 m/s 751 mmHg 46%

24 Janeiro, Domingo

Tempo Temperatura Precipitação Vento Pressão Humidade
00:00 +28°C° 0 mm 3 m/s 751 mmHg 63%
01:00 +27°C° 0 mm 3 m/s 751 mmHg 80%
02:00 +26°C° 0 mm 3 m/s 751 mmHg 83%
03:00 +26°C° 0 mm 2 m/s 751 mmHg 86%
04:00 +25°C° 0 mm 1 m/s 750 mmHg 89%
05:00 +25°C° 0 mm 1 m/s 751 mmHg 91%
06:00 +25°C° 0 mm 1 m/s 751 mmHg 92%
07:00 +24°C° 0 mm 1 m/s 752 mmHg 93%
08:00 +27°C° 0 mm 1 m/s 752 mmHg 81%
09:00 +30°C° 0 mm 1 m/s 752 mmHg 69%
10:00 +32°C° 0 mm 1 m/s 753 mmHg 57%
11:00 +34°C° 0 mm 1 m/s 752 mmHg 47%
12:00 +36°C° 0 mm 1 m/s 751 mmHg 37%
13:00 +39°C° 0 mm 2 m/s 750 mmHg 27%
14:00 +39°C° 0 mm 2 m/s 749 mmHg 24%
15:00 +40°C° 0 mm 1 m/s 748 mmHg 21%
16:00 +41°C° 0 mm 1 m/s 747 mmHg 18%
17:00 +37°C° 0 mm 1 m/s 748 mmHg 20%
18:00 +35°C° 0 mm 1 m/s 748 mmHg 22%
19:00 +33°C° 0 mm 1 m/s 748 mmHg 24%
20:00 +32°C° 0 mm 2 m/s 749 mmHg 28%
21:00 +31°C° 0 mm 2 m/s 750 mmHg 33%
22:00 +30°C° 0 mm 3 m/s 750 mmHg 38%
23:00 +29°C° 0 mm 3 m/s 750 mmHg 51%

25 Janeiro, Segunda-feira

Tempo Temperatura Precipitação Vento Pressão Humidade
00:00 +28°C° 0 mm 3 m/s 751 mmHg 64%
01:00 +27°C° 0 mm 4 m/s 751 mmHg 77%
02:00 +27°C° 0 mm 3 m/s 751 mmHg 81%
03:00 +26°C° 0 mm 2 m/s 750 mmHg 84%
04:00 +25°C° 0 mm 2 m/s 750 mmHg 88%
05:00 +25°C° 0 mm 1 m/s 751 mmHg 90%
06:00 +25°C° 0 mm 1 m/s 751 mmHg 92%
07:00 +22°C° 0 mm 0 m/s 752 mmHg 94%
08:00 +27°C° 0 mm 1 m/s 752 mmHg 82%
09:00 +29°C° 0 mm 1 m/s 753 mmHg 71%
10:00 +31°C° 0 mm 2 m/s 753 mmHg 59%
11:00 +34°C° 0 mm 1 m/s 752 mmHg 49%
12:00 +36°C° 0 mm 1 m/s 751 mmHg 38%
13:00 +37°C° 0 mm 0 m/s 751 mmHg 28%
14:00 +37°C° 0 mm 0 m/s 750 mmHg 26%
15:00 +37°C° 0 mm 0 m/s 749 mmHg 24%
16:00 +40°C° 0 mm 1 m/s 748 mmHg 22%
17:00 +37°C° 0 mm 1 m/s 748 mmHg 24%
18:00 +35°C° 0 mm 1 m/s 749 mmHg 27%
19:00 +34°C° 0 mm 1 m/s 749 mmHg 29%
20:00 +32°C° 0 mm 2 m/s 750 mmHg 35%
21:00 +31°C° 0 mm 3 m/s 750 mmHg 41%
22:00 +30°C° 0 mm 4 m/s 751 mmHg 48%
23:00 +29°C° 0 mm 4 m/s 751 mmHg 57%

26 Janeiro, Terça-feira

Tempo Temperatura Precipitação Vento Pressão Humidade
00:00 +28°C° 0 mm 4 m/s 751 mmHg 66%
01:00 +28°C° 0 mm 3 m/s 751 mmHg 75%
02:00 +27°C° 0 mm 3 m/s 751 mmHg 78%
03:00 +26°C° 0 mm 2 m/s 751 mmHg 81%
04:00 +26°C° 0 mm 2 m/s 751 mmHg 84%
05:00 +25°C° 0 mm 1 m/s 751 mmHg 87%
06:00 +25°C° 0 mm 1 m/s 752 mmHg 89%
07:00 +23°C° 0 mm 0 m/s 752 mmHg 91%
08:00 +27°C° 0 mm 1 m/s 752 mmHg 80%
09:00 +29°C° 0 mm 1 m/s 753 mmHg 69%
10:00 +32°C° 0 mm 2 m/s 753 mmHg 58%
11:00 +34°C° 0 mm 1 m/s 752 mmHg 47%
12:00 +37°C° 0 mm 1 m/s 751 mmHg 37%
13:00 +38°C° 0 mm 0 m/s 750 mmHg 26%
14:00 +38°C° 0 mm 0 m/s 750 mmHg 24%
15:00 +41°C° 0 mm 1 m/s 749 mmHg 22%
16:00 +41°C° 0 mm 1 m/s 748 mmHg 21%
17:00 +39°C° 0 mm 1 m/s 748 mmHg 23%
18:00 +37°C° 0 mm 2 m/s 748 mmHg 25%
19:00 +35°C° 0 mm 2 m/s 749 mmHg 28%
20:00 +34°C° 0 mm 3 m/s 749 mmHg 37%
21:00 +33°C° 0 mm 4 m/s 750 mmHg 46%
22:00 +32°C° 0 mm 5 m/s 751 mmHg 55%
23:00 +30°C° 0 mm 4 m/s 751 mmHg 62%
Mostrar mais